EWG2HA EDDS-LEVC

Flight info

Callsign EWG2HA
Flight time 1h 54m
Altitude 37000
Route ROTWE1K ROTWE Y126 TUBLO N850 NATOR N869 NEMOS DCT GEVEA DCT INCUS DCT BALSI DCT RETNO DCT TUPOX DCT MTG DCT DIVKO DCT NILDU DCT NENDA DCT BCN M985 SOPET
Aircraft A320/M-SDE3FGHIRWY/LB1

Departure

Time 2026-05-04 06:09
Airport Stuttgart Airport (EDDS)

Arrival

Time 2026-05-04 08:03
Airport Valencia Airport (LEVC)
Time Latitude Longitude Altitude Speed Heading
2026-05-04 05:58 48.68730 9.19329 1313 ft 0 kts 163°
2026-05-04 06:01 48.68727 9.19330 1312 ft 2 kts 164°
2026-05-04 06:03 48.68842 9.20051 1294 ft 17 kts 71°
2026-05-04 06:03 48.68878 9.20242 1290 ft 21 kts 74°
2026-05-04 06:05 48.69212 9.22002 1252 ft 20 kts 74°
2026-05-04 06:05 48.69305 9.22496 1236 ft 28 kts 74°
2026-05-04 06:05 48.69358 9.22773 1230 ft 24 kts 73°
2026-05-04 06:06 48.69407 9.23034 1225 ft 28 kts 74°
2026-05-04 06:06 48.69460 9.23312 1219 ft 24 kts 73°
2026-05-04 06:06 48.69509 9.23575 1214 ft 28 kts 74°
2026-05-04 06:06 48.69560 9.23838 1208 ft 23 kts 73°
2026-05-04 06:07 48.69602 9.24062 1203 ft 19 kts 73°
2026-05-04 06:07 48.69581 9.24237 1196 ft 20 kts 119°
2026-05-04 06:07 48.69481 9.24321 1190 ft 17 kts 164°
2026-05-04 06:07 48.69402 9.24349 1190 ft 6 kts 192°
2026-05-04 06:08 48.69390 9.24313 1191 ft 2 kts 251°
2026-05-04 06:08 48.69363 9.24177 1194 ft 41 kts 254°
2026-05-04 06:08 48.69217 9.23402 1209 ft 109 kts 254°
2026-05-04 06:08 48.68958 9.22030 1263 ft 157 kts 255°
2026-05-04 06:09 48.68686 9.20453 1894 ft 155 kts 257°
2026-05-04 06:09 48.68416 9.18854 2538 ft 163 kts 255°
2026-05-04 06:11 48.65414 9.03234 6723 ft 260 kts 247°
2026-05-04 06:11 48.64379 9.00977 7563 ft 266 kts 224°
2026-05-04 06:13 48.53695 8.85934 11583 ft 354 kts 224°
2026-05-04 06:14 48.42840 8.69778 15623 ft 376 kts 224°
2026-05-04 06:14 48.40962 8.67014 16264 ft 379 kts 224°
2026-05-04 06:15 48.39066 8.64231 16888 ft 382 kts 224°
2026-05-04 06:15 48.37151 8.61426 17524 ft 386 kts 224°
2026-05-04 06:15 48.35223 8.58606 18178 ft 388 kts 224°
2026-05-04 06:15 48.33279 8.55771 18737 ft 391 kts 224°
2026-05-04 06:16 48.31348 8.52954 19269 ft 393 kts 224°
2026-05-04 06:16 48.29381 8.50084 19788 ft 395 kts 224°
2026-05-04 06:16 48.27397 8.47192 20302 ft 398 kts 224°
2026-05-04 06:16 48.25407 8.44297 20802 ft 400 kts 224°
2026-05-04 06:17 48.23400 8.41385 21289 ft 403 kts 224°
2026-05-04 06:17 48.21376 8.38459 21762 ft 405 kts 224°
2026-05-04 06:17 48.19342 8.35522 22217 ft 408 kts 224°
2026-05-04 06:17 48.17227 8.32679 22657 ft 410 kts 218°
2026-05-04 06:18 48.14822 8.30351 23077 ft 413 kts 210°
2026-05-04 06:18 48.12282 8.28303 23513 ft 415 kts 209°
2026-05-04 06:18 48.09739 8.26247 23891 ft 417 kts 210°
2026-05-04 06:20 47.91625 8.11575 26192 ft 429 kts 209°
2026-05-04 06:20 47.88995 8.09459 26485 ft 430 kts 209°
2026-05-04 06:21 47.78381 8.00954 27542 ft 436 kts 209°
2026-05-04 06:21 47.75709 7.98813 27798 ft 437 kts 209°
2026-05-04 06:22 47.73062 7.96694 28049 ft 437 kts 209°
2026-05-04 06:22 47.70356 7.94529 28358 ft 436 kts 209°
2026-05-04 06:25 47.37130 7.68207 32335 ft 419 kts 209°
2026-05-04 06:25 47.34555 7.66179 32636 ft 418 kts 209°
2026-05-04 06:26 47.32046 7.64034 32919 ft 416 kts 216°
2026-05-04 06:26 47.29803 7.61363 33215 ft 414 kts 224°
2026-05-04 06:26 47.27889 7.58208 33511 ft 413 kts 231°
2026-05-04 06:26 47.26119 7.54888 33805 ft 412 kts 231°
2026-05-04 06:27 47.19025 7.41735 34860 ft 410 kts 231°
2026-05-04 06:28 47.17249 7.38455 35083 ft 410 kts 231°
2026-05-04 06:28 47.15475 7.35175 35284 ft 410 kts 231°
2026-05-04 06:28 47.13699 7.31892 35472 ft 411 kts 231°
2026-05-04 06:28 47.11945 7.28652 35649 ft 411 kts 231°
2026-05-04 06:29 47.10162 7.25365 35819 ft 412 kts 231°
2026-05-04 06:29 47.08375 7.22075 35997 ft 412 kts 231°
2026-05-04 06:29 47.06587 7.18781 36176 ft 413 kts 231°
2026-05-04 06:29 47.04794 7.15489 36349 ft 413 kts 231°
2026-05-04 06:30 47.02997 7.12195 36512 ft 414 kts 231°
2026-05-04 06:30 47.01197 7.08900 36681 ft 414 kts 231°
2026-05-04 06:30 46.99395 7.05605 36843 ft 414 kts 231°
2026-05-04 06:30 46.97591 7.02311 37010 ft 415 kts 231°
2026-05-04 06:31 46.93956 6.95704 37077 ft 418 kts 231°
2026-05-04 06:31 46.90106 6.89372 37056 ft 417 kts 221°
2026-05-04 06:33 46.72128 6.67967 37046 ft 417 kts 220°
2026-05-04 06:34 46.67623 6.62640 37053 ft 417 kts 220°
2026-05-04 06:34 46.63113 6.57313 37057 ft 417 kts 220°
2026-05-04 06:36 46.45072 6.36125 37072 ft 415 kts 219°
2026-05-04 06:37 46.40575 6.30877 37062 ft 415 kts 219°
2026-05-04 06:37 46.36083 6.25633 37050 ft 415 kts 219°
2026-05-04 06:38 46.31587 6.20405 37048 ft 414 kts 219°
2026-05-04 06:40 46.13440 6.08051 37034 ft 415 kts 206°
2026-05-04 06:40 46.10764 6.06332 37035 ft 415 kts 206°
2026-05-04 06:40 46.05501 6.03020 37059 ft 416 kts 205°
2026-05-04 06:41 46.00187 5.99724 37047 ft 416 kts 205°
2026-05-04 06:41 45.94877 5.96417 37051 ft 416 kts 205°
2026-05-04 06:42 45.89565 5.93110 37054 ft 416 kts 205°
2026-05-04 06:44 45.68338 5.79969 37069 ft 414 kts 205°
2026-05-04 06:44 45.63045 5.76706 37069 ft 414 kts 205°
2026-05-04 06:45 45.57755 5.73453 37059 ft 414 kts 205°
2026-05-04 06:45 45.52465 5.70206 37055 ft 414 kts 205°
2026-05-04 06:46 45.47181 5.66972 37050 ft 414 kts 205°
2026-05-04 06:46 45.41892 5.63748 37025 ft 413 kts 205°
2026-05-04 06:48 45.20746 5.50878 37034 ft 414 kts 206°
2026-05-04 06:50 44.99517 5.38091 37038 ft 414 kts 205°
2026-05-04 06:51 44.94221 5.34908 37049 ft 414 kts 205°
2026-05-04 06:51 44.88921 5.31731 37077 ft 413 kts 205°
2026-05-04 06:52 44.83639 5.28579 37065 ft 411 kts 205°
2026-05-04 06:52 44.78377 5.25445 37068 ft 411 kts 205°
2026-05-04 06:53 44.73120 5.22314 37071 ft 410 kts 205°
2026-05-04 06:53 44.67864 5.19188 37066 ft 410 kts 205°
2026-05-04 06:54 44.62611 5.16084 37062 ft 409 kts 205°
2026-05-04 06:54 44.57365 5.12989 37059 ft 409 kts 205°
2026-05-04 06:55 44.52159 5.09917 37064 ft 409 kts 205°
2026-05-04 06:55 44.46920 5.06817 37040 ft 409 kts 205°
2026-05-04 06:57 44.26801 4.95016 37091 ft 390 kts 205°
2026-05-04 06:58 44.21751 4.92060 37087 ft 402 kts 205°
2026-05-04 06:58 44.16529 4.89023 37084 ft 410 kts 205°
2026-05-04 06:59 44.11233 4.85949 37077 ft 413 kts 205°
2026-05-04 06:59 44.05931 4.82877 37084 ft 413 kts 205°
2026-05-04 07:01 43.84684 4.70594 37048 ft 414 kts 205°
2026-05-04 07:02 43.79366 4.67535 37029 ft 414 kts 205°
2026-05-04 07:02 43.74045 4.64483 37031 ft 414 kts 205°
2026-05-04 07:03 43.68722 4.61436 37026 ft 414 kts 205°
2026-05-04 07:03 43.63431 4.58407 37033 ft 414 kts 206°
2026-05-04 07:04 43.58102 4.55365 37038 ft 414 kts 205°
2026-05-04 07:04 43.52782 4.52346 37013 ft 413 kts 205°
2026-05-04 07:05 43.47472 4.49335 37029 ft 412 kts 205°
2026-05-04 07:05 43.42173 4.46333 37017 ft 412 kts 205°
2026-05-04 07:06 43.34220 4.41832 37012 ft 412 kts 206°
2026-05-04 07:07 43.28919 4.38840 37017 ft 412 kts 206°
2026-05-04 07:09 43.08586 4.27526 36988 ft 412 kts 205°
2026-05-04 07:09 43.03273 4.24615 36988 ft 412 kts 205°
2026-05-04 07:10 42.97953 4.21697 36992 ft 412 kts 205°
2026-05-04 07:12 42.76666 4.10101 36991 ft 411 kts 205°
2026-05-04 07:12 42.71343 4.07228 36989 ft 411 kts 205°
2026-05-04 07:13 42.66027 4.04354 36987 ft 412 kts 206°
2026-05-04 07:13 42.60735 4.01489 36986 ft 412 kts 206°
2026-05-04 07:14 42.47436 3.94330 36971 ft 411 kts 206°
2026-05-04 07:15 42.42123 3.91476 36972 ft 411 kts 206°
2026-05-04 07:15 42.36810 3.88629 36978 ft 411 kts 206°
2026-05-04 07:16 42.31497 3.85792 36967 ft 410 kts 206°
2026-05-04 07:16 42.26515 3.82242 36976 ft 402 kts 221°
2026-05-04 07:17 42.22801 3.76743 36999 ft 396 kts 236°
2026-05-04 07:17 42.19631 3.70675 36993 ft 395 kts 235°
2026-05-04 07:18 42.16448 3.64657 36988 ft 394 kts 235°
2026-05-04 07:18 42.13255 3.58647 36981 ft 394 kts 235°
2026-05-04 07:19 42.10071 3.52648 36984 ft 393 kts 235°
2026-05-04 07:19 42.06916 3.46688 36981 ft 393 kts 235°
2026-05-04 07:20 42.03741 3.40707 36984 ft 393 kts 235°
2026-05-04 07:20 42.00556 3.34744 36980 ft 392 kts 235°
2026-05-04 07:22 41.87816 3.10955 36969 ft 392 kts 235°
2026-05-04 07:23 41.84625 3.05030 36994 ft 392 kts 234°
2026-05-04 07:23 41.81436 2.99113 36990 ft 392 kts 235°
2026-05-04 07:24 41.78237 2.93194 36982 ft 392 kts 235°
2026-05-04 07:24 41.75042 2.87281 36980 ft 392 kts 235°
2026-05-04 07:26 41.62004 2.64010 37006 ft 390 kts 232°
2026-05-04 07:27 41.58645 2.58311 37000 ft 390 kts 233°
2026-05-04 07:27 41.55304 2.52600 37001 ft 390 kts 233°
2026-05-04 07:28 41.51970 2.46887 36990 ft 389 kts 233°
2026-05-04 07:28 41.48639 2.41198 37010 ft 389 kts 233°
2026-05-04 07:29 41.45311 2.35523 37012 ft 388 kts 233°
2026-05-04 07:29 41.41984 2.29865 37016 ft 388 kts 233°
2026-05-04 07:30 41.38678 2.24258 37035 ft 387 kts 232°
2026-05-04 07:30 41.35347 2.18613 37029 ft 388 kts 232°
2026-05-04 07:31 41.32011 2.12985 37001 ft 387 kts 233°
2026-05-04 07:33 41.17779 1.91657 37018 ft 384 kts 230°
2026-05-04 07:33 41.14210 1.86387 37018 ft 384 kts 229°
2026-05-04 07:34 41.10654 1.81142 36996 ft 384 kts 229°
2026-05-04 07:34 41.07051 1.75846 37000 ft 384 kts 229°
2026-05-04 07:35 41.03501 1.70635 36998 ft 383 kts 229°
2026-05-04 07:35 40.99925 1.65393 36999 ft 383 kts 229°
2026-05-04 07:36 40.96344 1.60158 36999 ft 384 kts 229°
2026-05-04 07:38 40.81967 1.39225 37000 ft 384 kts 229°
2026-05-04 07:38 40.78393 1.34049 37003 ft 383 kts 229°
2026-05-04 07:39 40.74799 1.28859 37004 ft 383 kts 229°
2026-05-04 07:39 40.71200 1.23667 37003 ft 383 kts 229°
2026-05-04 07:40 40.67601 1.18477 37001 ft 383 kts 229°
2026-05-04 07:40 40.64001 1.13290 37030 ft 384 kts 229°
2026-05-04 07:41 40.60397 1.08102 37020 ft 384 kts 229°
2026-05-04 07:41 40.56784 1.02915 36526 ft 386 kts 229°
2026-05-04 07:42 40.54967 1.00311 35804 ft 385 kts 229°
2026-05-04 07:42 40.53156 0.97715 34998 ft 386 kts 229°
2026-05-04 07:42 40.51337 0.95114 34167 ft 387 kts 228°
2026-05-04 07:42 40.49506 0.92503 33236 ft 388 kts 228°
2026-05-04 07:43 40.47677 0.89891 32316 ft 390 kts 229°
2026-05-04 07:43 40.45835 0.87257 31398 ft 392 kts 229°
2026-05-04 07:43 40.43980 0.84611 30545 ft 395 kts 228°
2026-05-04 07:43 40.42105 0.81941 29623 ft 398 kts 228°
2026-05-04 07:44 40.40216 0.79257 28647 ft 402 kts 228°
2026-05-04 07:44 40.38311 0.76554 27698 ft 406 kts 228°
2026-05-04 07:44 40.36382 0.73818 26827 ft 409 kts 228°
2026-05-04 07:44 40.34470 0.71105 25955 ft 412 kts 228°
2026-05-04 07:45 40.32514 0.68329 25101 ft 417 kts 228°
2026-05-04 07:45 40.30537 0.65524 24430 ft 421 kts 228°
2026-05-04 07:45 40.28540 0.62697 23847 ft 423 kts 227°
2026-05-04 07:45 40.26540 0.59875 23223 ft 422 kts 227°
2026-05-04 07:46 40.24550 0.57069 22524 ft 420 kts 227°
2026-05-04 07:46 40.22566 0.54273 21865 ft 418 kts 227°
2026-05-04 07:46 40.20592 0.51493 21219 ft 416 kts 227°
2026-05-04 07:46 40.18624 0.48726 20588 ft 413 kts 227°
2026-05-04 07:47 40.16673 0.45985 19973 ft 410 kts 227°
2026-05-04 07:47 40.14738 0.43268 19369 ft 408 kts 227°
2026-05-04 07:47 40.12808 0.40564 18778 ft 406 kts 227°
2026-05-04 07:49 39.99632 0.22132 14387 ft 387 kts 227°
2026-05-04 07:49 39.97798 0.19577 13798 ft 385 kts 227°
2026-05-04 07:49 39.95974 0.17038 13136 ft 382 kts 227°
2026-05-04 07:50 39.94162 0.14520 12482 ft 379 kts 227°
2026-05-04 07:50 39.92364 0.12023 11849 ft 376 kts 227°
2026-05-04 07:50 39.90580 0.09541 11240 ft 373 kts 227°
2026-05-04 07:50 39.88839 0.07119 10916 ft 358 kts 227°
2026-05-04 07:51 39.87175 0.04806 10658 ft 342 kts 227°
2026-05-04 07:51 39.86113 0.03331 10511 ft 332 kts 227°
2026-05-04 07:51 39.84475 0.01301 10270 ft 319 kts 219°
2026-05-04 07:51 39.82670 -0.00297 10038 ft 308 kts 211°
2026-05-04 07:52 39.80760 -0.01466 9803 ft 299 kts 202°
2026-05-04 07:52 39.78807 -0.02272 9529 ft 290 kts 199°
2026-05-04 07:52 39.76905 -0.03013 9262 ft 278 kts 199°
2026-05-04 07:52 39.75085 -0.03727 9006 ft 270 kts 199°
2026-05-04 07:53 39.73297 -0.04436 8661 ft 266 kts 199°
2026-05-04 07:54 39.61042 -0.09307 5694 ft 262 kts 200°
2026-05-04 07:55 39.59306 -0.10022 5246 ft 262 kts 200°
2026-05-04 07:55 39.57572 -0.10740 4852 ft 261 kts 200°
2026-05-04 07:55 39.55832 -0.11457 4598 ft 263 kts 200°
2026-05-04 07:55 39.54086 -0.12166 4339 ft 263 kts 199°
2026-05-04 07:56 39.52351 -0.12869 4093 ft 258 kts 199°
2026-05-04 07:56 39.50667 -0.13551 3837 ft 249 kts 199°
2026-05-04 07:56 39.49039 -0.14209 3582 ft 241 kts 199°
2026-05-04 07:56 39.47497 -0.14965 3341 ft 233 kts 208°
2026-05-04 07:57 39.46089 -0.15945 3103 ft 227 kts 211°
2026-05-04 07:57 39.44729 -0.16945 2847 ft 223 kts 211°
2026-05-04 07:57 39.43397 -0.17945 2597 ft 219 kts 211°
2026-05-04 07:57 39.42095 -0.18938 2503 ft 216 kts 212°
2026-05-04 07:58 39.40883 -0.20065 2499 ft 214 kts 231°
2026-05-04 07:58 39.40297 -0.21801 2508 ft 214 kts 263°
2026-05-04 07:58 39.40246 -0.23729 2513 ft 214 kts 270°
2026-05-04 07:58 39.40368 -0.25644 2499 ft 215 kts 286°
2026-05-04 07:59 39.40976 -0.27407 2511 ft 216 kts 295°
2026-05-04 07:59 39.41649 -0.29133 2513 ft 215 kts 295°
2026-05-04 07:59 39.42313 -0.30852 2501 ft 208 kts 295°
2026-05-04 07:59 39.42941 -0.32485 2495 ft 200 kts 295°
2026-05-04 08:00 39.43541 -0.34051 2351 ft 194 kts 295°
2026-05-04 08:00 39.44130 -0.35580 2154 ft 185 kts 296°
2026-05-04 08:00 39.44687 -0.37027 1884 ft 176 kts 296°
2026-05-04 08:02 39.47967 -0.45621 465 ft 145 kts 296°
2026-05-04 08:02 39.48409 -0.46787 275 ft 144 kts 296°
2026-05-04 08:02 39.48825 -0.47879 217 ft 116 kts 296°
2026-05-04 08:03 39.49104 -0.48614 211 ft 66 kts 296°
2026-05-04 08:03 39.49253 -0.49009 216 ft 32 kts 297°
2026-05-04 08:03 39.49401 -0.49235 215 ft 31 kts 323°
2026-05-04 08:03 39.49484 -0.49307 212 ft 9 kts 327°
2026-05-04 08:04 39.49534 -0.49299 211 ft 7 kts 43°
2026-05-04 08:04 39.49542 -0.49243 209 ft 6 kts 102°
2026-05-04 08:04 39.49514 -0.49163 210 ft 17 kts 117°
2026-05-04 08:04 39.49455 -0.49008 211 ft 20 kts 116°
2026-05-04 08:05 39.49388 -0.48833 212 ft 23 kts 116°
2026-05-04 08:05 39.49314 -0.48638 213 ft 25 kts 116°
2026-05-04 08:05 39.49234 -0.48427 214 ft 28 kts 116°
2026-05-04 08:05 39.49146 -0.48196 209 ft 30 kts 116°
2026-05-04 08:06 39.49064 -0.47983 212 ft 16 kts 116°
2026-05-04 08:06 39.49034 -0.47853 212 ft 16 kts 83°
2026-05-04 08:06 39.49054 -0.47706 209 ft 17 kts 78°
2026-05-04 08:06 39.49029 -0.47557 214 ft 14 kts 116°
2026-05-04 08:08 39.49066 -0.47441 209 ft 0 kts 39°
2026-05-04 08:16 39.49066 -0.47440 210 ft 0 kts 39°